FW3988 Weather Reports


time (UTC)temp
C
wind
direction
speed
KPH
gust
KPH
rain 1hr
cm
rain 24hr
cm
rain mn
cm
humidity
%
barometer
mb
20200229094545 19 25 0.0 4.8 0.00 0.00 0.00 78 1016.6
20200229093024 19 25 0.0 3.2 0.00 0.00 0.00 81 1016.5
20200229091557 20 25 0.0 1.6 0.00 0.00 0.00 82 1016.6
20200229084506 20 25 0.0 3.2 0.00 0.00 0.00 83 1016.9
20200229083037 20 25 0.0 1.6 0.00 0.00 0.00 82 1017.1
20200229081531 20 25 0.0 1.6 0.00 0.00 0.00 81 1017.0
20200229080035 20 25 0.0 1.6 0.00 0.00 0.00 80 1017.0
20200229074640 20 25 0.0 3.2 0.00 0.00 0.00 80 1017.0
20200229073137 20 25 1.6 3.2 0.00 0.00 0.00 80 1017.1
20200229071625 20 25 1.6 4.8 0.00 0.00 0.00 80 1017.1
20200229070221 20 25 0.0 3.2 0.00 0.00 0.00 80 1017.1
20200229063038 20 25 1.6 4.8 0.00 0.00 0.00 79 1017.0
20200229060138 21 25 3.2 8.0 0.00 0.00 0.00 78 1017.2
20200229053100 21 25 1.6 526.3 6.55 6.55 0.00 78 1017.3
20200229051528 21 25 1.6 4.8 0.00 0.00 0.00 78 1017.4
20200229050025 21 25 3.2 8.0 0.00 0.00 0.00 78 1017.5
20200229044553 21 25 1.6 6.4 0.00 0.00 0.00 79 1017.5
20200229043232 21 25 3.2 8.0 0.00 0.00 0.00 81 1017.4
20200229040036 21 24 4.8 14.5 0.00 0.00 0.00 83 1017.5
20200229034611 21 21 9.7 526.3 6.55 6.55 0.00 82 1017.4
20200229033043 22 45 12.9 19.3 0.00 0.00 0.00 81 1017.4
20200229031619 22 18 9.7 22.5 0.00 0.00 0.00 81 1017.3
20200229030135 22 24 9.7 19.3 0.00 0.00 0.00 81 1017.1
20200229024609 22 24 9.7 526.3 6.55 6.55 0.00 81 1016.9
20200229023107 22 359 8.0 17.7 0.00 0.00 0.00 81 1016.5
20200229021746 22 23 11.3 20.9 0.00 0.00 0.00 80 1016.2
20200229013004 23 15 6.4 16.1 0.00 0.00 0.00 77 1015.6
20200229011516 23 5 6.4 17.7 0.00 0.00 0.00 76 1015.5
20200229010132 23 37 12.9 19.3 0.00 0.00 0.00 74 1015.3
20200229004646 23 8 12.9 17.7 0.00 0.00 0.00 72 1015.2
20200229003204 24 24 9.7 16.1 0.00 0.00 0.00 70 1015.3
20200229001549 24 4 12.9 19.3 0.00 0.00 0.00 68 1015.2
20200229000143 25 30 11.3 17.7 0.00 0.00 0.00 64 1015.1
20200228234546 25 18 12.9 22.5 0.00 0.00 0.00 62 1015.1
20200228233206 25 356 11.3 20.9 0.00 0.00 0.00 60 1015.2
20200228230054 26 352 9.7 22.5 0.00 0.00 0.00 61 1015.2
20200228221735 25 357 11.3 24.1 0.00 0.00 0.00 62 1015.3
20200228220055 25 24 14.5 22.5 0.00 0.00 0.00 61 1015.3
20200228214610 25 5 12.9 24.1 0.00 0.00 0.00 62 1015.6
20200228211637 25 32 11.3 24.1 0.00 0.00 0.00 66 1016.1
20200228210128 25 16 11.3 20.9 0.00 0.00 0.00 69 1016.2
20200228204707 25 315 11.3 17.7 0.00 0.00 0.00 70 1016.3
20200228203121 25 25 12.9 20.9 0.00 0.00 0.00 70 1016.4
20200228200027 25 24 8.0 16.1 0.00 0.00 0.00 64 1016.4
20200228194551 25 19 11.3 16.1 0.00 0.00 0.00 64 1016.6
20200228193107 25 18 3.2 12.9 0.00 0.00 0.00 65 1016.8
20200228191516 25 20 6.4 16.1 0.00 0.00 0.00 62 1017.2
20200228190119 25 311 9.7 16.1 0.00 0.00 0.00 63 1017.5
20200228184645 25 327 8.0 14.5 0.00 0.00 0.00 61 1017.7
20200228181529 25 7 4.8 9.7 0.00 0.00 0.00 64 1018.1
20200228170059 24 332 4.8 11.3 0.00 0.00 0.00 64 1018.7
20200228164533 23 307 1.6 8.0 0.00 0.00 0.00 64 1018.6
20200228161842 23 48 1.6 4.8 0.00 0.00 0.00 63 1018.6
20200228154638 23 121 1.6 3.2 0.00 0.00 0.00 62 1018.3
20200228150154 20 121 0.0 3.2 0.00 0.00 0.00 73 1018.0
20200228144555 19 121 1.6 4.8 0.00 0.00 0.00 75 1017.7
20200228140010 17 121 1.6 4.8 0.00 0.00 0.00 82 1017.2
20200228134632 17 121 1.6 4.8 0.00 0.00 0.00 83 1017.1
20200228131627 17 121 0.0 0.0 0.00 0.00 0.00 82 1016.8
20200228123224 18 121 0.0 4.8 0.00 0.00 0.00 80 1016.5
20200228121700 18 121 1.6 4.8 0.00 0.00 0.00 80 1016.4
20200228120119 18 115 3.2 8.0 0.00 0.00 0.00 81 1016.4
20200228113005 17 36 1.6 4.8 0.00 0.00 0.00 83 1016.2
20200228111616 17 36 0.0 3.2 0.00 0.00 0.00 83 1016.3
20200228110112 17 36 1.6 4.8 0.00 0.00 0.00 83 1016.3
20200228103039 17 36 1.6 4.8 0.00 0.00 0.00 82 1016.3
20200228100032 18 36 3.2 6.4 0.00 0.00 0.00 82 1016.5